Location: Borovka
(49.7741°N, 14.5280°E)
Time: 06:42:22
(UTC+00:00)

Cosmos 540 Rocket - Pass Details

Date: 17 November 2025
Orbit: 735 x 747 km, 74.1° (Epoch: 10 December)

Event Time Altitude Azimuth Distance (km) Brightness Sun altitude
Rises 15:40:59 0° 340° (NNW) 3,203 6.7 -4.4°
Reaches altitude 10° 15:43:33 10° 350° (N) 2,273 5.8 -4.8°
Maximum altitude 15:48:16 35° 56° (NE) 1,202 4.1 -5.5°
Drops below altitude 10° 15:52:55 10° 121° (ESE) 2,253 5.6 -6.2°
Sets 15:55:27 0° 131° (SE) 3,170 6.4 -6.6°
